Flag for U.S.A. Weather past 2 weeks in Torrance, California, U.S.A.

Now
72 °F

Sunny.


Feels Like: 76 °F
Forecast: 65 / 76 °F
Wind: No wind

Location: Hawthorne Municipal Airport

Current Time: Sep 30, 2014 at 9:27:37 AM

Latest Report: Sep 30, 2014 at 8:53 AM


Visibility: 10 mi

Pressure: 29.87 "Hg

Humidity: 61%

Dew point: 58 °F

Location of TorranceLocation

Historic Weather in Torrance — Graph

°F

Torrance temperature yesterday

Maximum temperature yesterday: 76 °F (at 3:53 PM)
Minimum temperature yesterday: 63 °F (at 5:53 AM)
Average temperature yesterday: 69 °F

Past Weeks' High & Low Weather Summary

 TemperatureHumidityPressure
High94 °F (Sep 16, 10:53 AM)97% (Sep 24, 4:53 AM)30.01 "Hg (Sep 24, 4:53 AM)
Low63 °F (Sep 29, 5:53 AM)30% (Sep 17, 3:53 PM)29.69 "Hg (Sep 16, 3:53 PM)
Average73 °F69%29.86 "Hg
* Reported Sep 15 7:53 AM — Sep 30 7:53 AM, Torrance, Weather by CustomWeather, © 2014

Note: Actual official high and low records may vary slightly from our data, if they occured in-between our weather recording intervals... More about our weather records

Advertising

Torrance weather history for previous 24 hours

 ConditionsComfort  
Time TempWeatherWind HumidityBarometerVisibility
7:53 AM
Sep 30
68 °FSunny.No wind70%29.86 "Hg10 mi
6:53 AM66 °FClear.No wind75%29.85 "Hg10 mi
5:53 AM65 °FClear.No wind78%29.85 "Hg10 mi
4:53 AM66 °FClear.No wind75%29.84 "Hg10 mi
3:53 AM66 °FClear.No wind81%29.84 "Hg10 mi
2:53 AM66 °FClear.No wind84%29.86 "Hg10 mi
1:53 AM66 °FClear.No wind87%29.87 "Hg10 mi
12:53 AM67 °FClear.No wind87%29.86 "Hg10 mi
11:53 PM
Sep 29
68 °FClear.3 mph84%29.87 "Hg10 mi
10:53 PM68 °FClear.No wind87%29.87 "Hg10 mi
9:53 PM69 °FClear.No wind81%29.87 "Hg10 mi
8:53 PM70 °FClear.7 mph76%29.86 "Hg10 mi
7:53 PM69 °FClear.6 mph76%29.85 "Hg10 mi
6:53 PM71 °FSunny.8 mph66%29.84 "Hg10 mi
5:53 PM73 °FSunny.9 mph62%29.85 "Hg10 mi
4:53 PM73 °FSunny.15 mph59%29.85 "Hg10 mi
3:53 PM76 °FSunny.13 mph52%29.86 "Hg10 mi
2:53 PM75 °FSunny.10 mph58%29.87 "Hg10 mi
1:53 PM75 °FSunny.13 mph58%29.89 "Hg10 mi
12:53 PM74 °FSunny.10 mph56%29.92 "Hg10 mi
11:53 AM73 °FSunny.10 mph59%29.93 "Hg10 mi
10:53 AM72 °FSunny.8 mph59%29.93 "Hg10 mi
9:53 AM71 °FSunny.No wind63%29.94 "Hg10 mi
Weather by CustomWeather, © 2014

See weather overviewHow to use our weather pages